#timestamp,LO_Frequency,Hit,StdDev 
1533052815.7,286047002.3,N
1533052835.6,286047002.4,N
1533052855.4,286047002.0,N
1533052875.2,286047002.6,N
1533052895.1,286047002.2,N
1533052896.0,286047002.2,N
1533052915.8,286047001.5,N
1533052935.7,286047002.5,N
1533052955.5,286047001.9,N
1533052975.3,286047001.7,N
1533052995.2,286047002.5,N
1533053015.0,286047000.2,N
1533053015.9,286047000.2,N
1533053035.8,286047000.4,N
1533053055.6,286047000.2,N
1533053075.4,286047000.1,N
1533053095.3,286046999.7,N
1533053115.1,286047000.1,N
1533053135.8,286047000.2,N
1533053155.7,286047002.4,N
1533053175.5,286047000.3,N
1533053195.4,286047000.4,N
1533053215.2,286047000.0,N
1533053235.0,286047002.8,N
1533053235.9,286047002.8,N
1533053255.8,286047000.1,N
1533053275.6,286047002.8,N
1533053295.4,286047002.3,N
1533053315.3,286047002.3,N
1533053335.1,286047002.0,N
1533053355.9,286047001.5,N
1533053375.7,286047002.2,N
1533053395.5,286047002.4,N
1533053415.4,286047002.2,N
1533053435.2,286047002.6,N
1533053455.0,286047001.3,N
1533053456.0,286047001.3,N
1533053475.8,286047001.7,N
1533053495.6,286047004.0,Y
1533053515.5,286047001.7,P
1533053535.3,286047001.5,P
1533053555.1,286047001.5,P
1533053575.9,286047002.5,Y
1533053595.7,286047000.2,P
1533053615.6,286047002.3,P
1533053635.4,286047002.0,N
1533053655.2,286047002.2,N
1533053675.1,286047002.0,N
1533053676.0,286047002.0,N
1533053695.8,286046999.8,N
1533053715.7,286047002.5,N
1533053735.5,286047002.3,N
1533053755.3,286047000.0,N
1533053775.2,286047000.3,N
1533053795.0,286046999.8,N
1533053795.9,286046999.8,N
1533053815.8,286047001.9,N
1533053835.6,286047002.3,N
1533053855.4,286047002.6,N
1533053875.3,286047002.7,N
1533053895.1,286047002.4,N
1533053915.8,286047002.6,N
1533053935.7,286047000.1,N
1533053955.5,286047000.5,N
1533053975.4,286046999.8,N
1533053995.2,286046999.7,N
1533054015.0,286046999.7,N
1533054015.9,286046999.7,N
1533054035.8,286047000.0,N
1533054055.6,286047000.0,N
1533054075.5,286047000.8,N
1533054095.3,286046999.7,N
1533054115.1,286047001.6,N
1533054135.9,286047004.4,Y
1533054155.7,286046999.8,P
1533054175.5,286046999.8,N
1533054195.4,286047000.1,N
1533054215.2,286046999.8,N
1533054235.1,286046999.9,N
1533054236.0,286046999.9,N
1533054255.0,286047000.4,N
1533054255.9,286047000.4,N
1533054275.8,286046999.8,N
1533054295.6,286046998.5,Y
1533054315.4,286047000.5,P
1533054335.3,286047002.8,P
1533054355.1,286046999.8,N
1533054375.9,286046999.9,N
1533054395.7,286047000.2,N
1533054415.5,286047002.3,N
1533054435.4,286047002.6,N
1533054455.2,286047002.2,N
1533054475.0,286047002.1,N
1533054476.0,286047002.1,N
1533054495.8,286047002.5,N
1533054515.6,286047002.3,N
1533054535.5,286047001.7,N
1533054555.3,286047002.5,N
1533054575.2,286047002.1,N
1533054595.9,286047001.9,N
1533054615.7,286047002.7,N
1533054635.6,286046999.7,N
1533054655.4,286047002.7,N
1533054675.2,286047002.7,N
1533054695.1,286047000.2,N
1533054696.0,286047000.2,N
1533054715.8,286047000.3,N
1533054735.7,286047000.1,N
1533054755.5,286047000.1,N
1533054775.3,286046999.8,N
1533054795.2,286047000.1,N
1533054815.0,286047000.2,N
1533054815.9,286047000.2,N
1533054835.7,286047000.4,N
1533054855.6,286047000.0,N
1533054875.4,286047000.6,N
1533054895.3,286046998.2,N
1533054915.1,286046999.0,N
1533054935.8,286046999.3,N
1533054955.7,286046999.1,N
1533054975.5,286046996.5,N
1533054995.4,286046998.9,N
1533055015.2,286046999.1,N
1533055035.0,286046997.0,N
1533055035.9,286046997.0,N
1533055055.8,286046996.5,N
1533055075.6,286046998.3,N
1533055095.4,286046999.1,N
1533055115.3,286046999.4,N
1533055135.1,286046996.8,N
1533055155.9,286046999.0,N
1533055175.7,286046999.1,N
1533055195.5,286046999.5,N
1533055215.4,286046999.1,N
1533055235.2,286046999.0,N
1533055255.1,286046996.9,N
1533055256.0,286046996.9,N
1533055275.8,286046999.0,N
1533055295.6,286046998.4,N
1533055315.5,286046998.2,N
1533055335.3,286047000.9,N
1533055355.1,286047001.0,N
1533055375.9,286047000.5,N
1533055395.7,286046999.8,N
1533055415.6,286047000.4,N
1533055435.4,286047000.3,N
1533055455.2,286046998.3,N
1533055475.1,286047000.7,N
1533055476.0,286047000.7,N
1533055495.8,286047001.2,N
1533055515.6,286046998.6,N
1533055535.5,286047001.1,N
1533055555.3,286047000.6,N
1533055575.2,286047002.4,N
1533055595.9,286047002.3,N
1533055615.7,286047000.4,N
1533055635.6,286047000.3,N
1533055655.4,286047000.7,N
1533055675.2,286047001.0,N
1533055695.1,286046998.2,N
1533055696.0,286046998.2,N
1533055715.8,286047000.0,N
1533055735.7,286047000.4,N
1533055755.5,286047001.2,N
1533055775.3,286047000.6,N
1533055795.2,286047001.1,N
1533055815.0,286046998.3,N
1533055835.5,286046998.6,N
1533055855.3,286046998.1,N
1533055875.1,286046998.2,N
1533055895.9,286046998.3,N
1533055915.7,286046999.4,N
1533055935.6,286046998.5,N
1533055955.4,286046998.6,N
1533055975.2,286046998.4,N
1533055995.1,286047001.2,N
1533055996.0,286047001.2,N
1533056015.8,286046998.4,N
1533056035.7,286046999.1,N
1533056055.5,286046998.2,N
1533056075.3,286046998.7,N
1533056095.2,286046999.0,N
1533056115.0,286046998.8,N
1533056115.9,286046998.8,N
1533056135.7,286046998.4,N
1533056155.6,286046998.1,N
1533056175.4,286046998.8,N
1533056195.3,286046999.4,N
1533056215.1,286046996.6,Y
1533056235.8,286047001.2,P
1533056255.7,286047001.1,N
1533056275.5,286047000.8,N
1533056295.4,286047000.7,N
1533056315.2,286046999.4,N
1533056335.0,286046998.9,N
1533056335.9,286046998.9,N
1533056355.8,286047000.9,N
1533056375.6,286047000.8,N
1533056395.4,286047001.1,N
